{"data":{"norad_id":56416,"intl_designator":"2023-061AU","name":"STARLINK-6260","alt_names":[],"object_type":"PAYLOAD","status":"ACTIVE","operator":null,"country":"US","launch_date":"2023-05-04","launch_site_code":"AFETR","launch_vehicle":null,"mission":null,"orbit_class":"UNKNOWN","rcs_meters":null,"size_class":null,"mass_kg":null,"dimensions":null,"purposes":["comms"],"wikipedia_slug":null,"has_3d_model":false,"image_url":null,"decayed_at":null,"tle_current":{"epoch":"2026-05-25T04:08:31.301664Z","epoch_age_seconds":56344,"freshness":"FRESH","line1":"1 56416U 23061AU  26145.17258451  .00053685  00000+0  19639-2 0  9991","line2":"2 56416  43.0047 107.8864 0002125 264.4406  95.6203 15.27282123168656","mean_motion":15.27282123,"eccentricity":0.0002125,"inclination_deg":43.0047,"raan_deg":107.8864,"arg_perigee_deg":264.4406,"mean_anomaly_deg":95.6203,"bstar":0.0019639,"rev_number":16865,"period_min":94.285134246936,"perigee_km":482.48300028918,"apogee_km":485.39938352074,"semimajor_km":6862.078191905,"source":"CELESTRAK","updated_at":"2026-05-25T13:38:18.062038Z"}}}